Time,TemperatureF,DewpointF,PressureIn,WindDirection,WindDirectionDegrees,WindSpeedMPH,WindSpeedGustMPH,Humidity,HourlyPrecipIn,Conditions,Clouds,dailyrainin,SoftwareType,DateUTC
2013-04-08 00:08:00,46.0,31.0,29.91,South,182,0.0,0.0,57,0.00,,,0.00,weatherlink.com 1.10,2013-04-08 04:08:00,
2013-04-08 00:24:00,44.8,31.0,29.90,South,188,0.0,1.0,60,0.00,,,0.00,weatherlink.com 1.10,2013-04-08 04:24:00,
2013-04-08 00:39:00,44.9,32.0,29.90,SW,215,2.0,4.0,61,0.00,,,0.00,weatherlink.com 1.10,2013-04-08 04:39:00,
2013-04-08 00:54:00,44.8,32.0,29.90,South,186,2.0,6.0,62,0.00,,,0.00,weatherlink.com 1.10,2013-04-08 04:54:00,
2013-04-08 01:09:00,44.6,33.0,29.89,SSE,165,1.0,7.0,64,0.00,,,0.00,weatherlink.com 1.10,2013-04-08 05:09:00,
2013-04-08 01:24:00,44.8,33.0,29.88,SW,217,2.0,8.0,64,0.00,,,0.00,weatherlink.com 1.10,2013-04-08 05:24:00,
2013-04-08 01:39:00,44.7,34.0,29.88,SSW,206,0.0,6.0,66,0.00,,,0.00,weatherlink.com 1.10,2013-04-08 05:39:00,
2013-04-08 01:54:00,45.5,34.0,29.88,SSW,207,2.0,7.0,65,0.00,,,0.00,weatherlink.com 1.10,2013-04-08 05:54:00,
2013-04-08 02:10:00,45.6,34.0,29.87,SSW,196,4.0,7.0,65,0.00,,,0.00,weatherlink.com 1.10,2013-04-08 06:10:00,
2013-04-08 02:25:00,45.1,34.0,29.87,SW,216,0.0,7.0,66,0.00,,,0.00,weatherlink.com 1.10,2013-04-08 06:25:00,
2013-04-08 02:40:00,44.8,35.0,29.87,WSW,252,0.0,7.0,68,0.00,,,0.00,weatherlink.com 1.10,2013-04-08 06:40:00,
2013-04-08 02:55:00,44.1,34.0,29.87,NNE,17,1.0,6.0,69,0.00,,,0.00,weatherlink.com 1.10,2013-04-08 06:55:00,
2013-04-08 03:10:00,42.9,34.0,29.87,NE,51,2.0,2.0,71,0.00,,,0.00,weatherlink.com 1.10,2013-04-08 07:10:00,
2013-04-08 03:25:00,42.3,35.0,29.87,NE,36,3.0,4.0,74,0.00,,,0.00,weatherlink.com 1.10,2013-04-08 07:25:00,
2013-04-08 03:56:00,41.6,34.0,29.87,WSW,244,0.0,3.0,74,0.00,,,0.00,weatherlink.com 1.10,2013-04-08 07:56:00,
2013-04-08 04:11:00,40.6,34.0,29.87,North,355,0.0,0.0,77,0.00,,,0.00,weatherlink.com 1.10,2013-04-08 08:11:00,
2013-04-08 04:27:00,40.2,34.0,29.87,NNE,21,0.0,0.0,79,0.00,,,0.00,weatherlink.com 1.10,2013-04-08 08:27:00,
2013-04-08 04:41:00,39.1,33.0,29.87,WSW,246,0.0,2.0,80,0.00,,,0.00,weatherlink.com 1.10,2013-04-08 08:41:00,
2013-04-08 04:56:00,40.0,35.0,29.87,West,268,5.0,5.0,81,0.00,,,0.00,weatherlink.com 1.10,2013-04-08 08:56:00,
2013-04-08 05:12:00,42.1,35.0,29.88,WNW,294,0.0,3.0,77,0.00,,,0.00,weatherlink.com 1.10,2013-04-08 09:12:00,
2013-04-08 05:27:00,42.6,36.0,29.88,WNW,301,1.0,4.0,76,0.00,,,0.00,weatherlink.com 1.10,2013-04-08 09:27:00,
2013-04-08 05:42:00,42.9,35.0,29.90,SW,215,0.0,3.0,74,0.00,,,0.00,weatherlink.com 1.10,2013-04-08 09:42:00,
2013-04-08 05:57:00,43.0,35.0,29.91,West,260,0.0,2.0,73,0.00,,,0.00,weatherlink.com 1.10,2013-04-08 09:57:00,
2013-04-08 06:12:00,43.3,35.0,29.91,WSW,258,4.0,8.0,72,0.00,,,0.00,weatherlink.com 1.10,2013-04-08 10:12:00,
2013-04-08 06:27:00,45.6,34.0,29.93,North,355,3.0,8.0,65,0.00,,,0.00,weatherlink.com 1.10,2013-04-08 10:27:00,
2013-04-08 06:44:00,45.8,34.0,29.93,NW,313,5.0,9.0,63,0.00,,,0.00,weatherlink.com 1.10,2013-04-08 10:44:00,
2013-04-08 06:57:00,45.9,33.0,29.93,West,265,3.0,20.0,62,0.00,,,0.00,weatherlink.com 1.10,2013-04-08 10:57:00,
2013-04-08 07:14:00,45.8,33.0,29.95,NNW,327,0.0,15.0,62,0.00,,,0.00,weatherlink.com 1.10,2013-04-08 11:14:00,
2013-04-08 07:29:00,45.8,33.0,29.95,SSW,207,2.0,18.0,61,0.00,,,0.00,weatherlink.com 1.10,2013-04-08 11:29:00,
2013-04-08 07:44:00,45.9,33.0,29.95,West,272,3.0,11.0,61,0.00,,,0.00,weatherlink.com 1.10,2013-04-08 11:44:00,
2013-04-08 08:14:00,45.9,33.0,29.96,NW,323,0.0,2.0,60,0.00,,,0.00,weatherlink.com 1.10,2013-04-08 12:14:00,
2013-04-08 08:29:00,46.3,32.0,29.97,West,266,0.0,3.0,59,0.00,,,0.00,weatherlink.com 1.10,2013-04-08 12:29:00,
2013-04-08 08:45:00,47.1,33.0,29.97,West,275,0.0,3.0,58,0.00,,,0.00,weatherlink.com 1.10,2013-04-08 12:45:00,
2013-04-08 08:59:00,47.5,32.0,29.97,NNW,340,0.0,5.0,55,0.00,,,0.00,weatherlink.com 1.10,2013-04-08 12:59:00,
2013-04-08 09:14:00,48.1,32.0,29.97,NNE,24,1.0,5.0,54,0.00,,,0.00,weatherlink.com 1.10,2013-04-08 13:14:00,
2013-04-08 09:29:00,48.5,32.0,29.97,West,259,0.0,3.0,54,0.00,,,0.00,weatherlink.com 1.10,2013-04-08 13:29:00,
2013-04-08 09:44:00,48.8,32.0,29.98,North,355,0.0,4.0,53,0.00,,,0.00,weatherlink.com 1.10,2013-04-08 13:44:00,
2013-04-08 09:59:00,48.9,32.0,29.99,WSW,254,0.0,3.0,53,0.00,,,0.00,weatherlink.com 1.10,2013-04-08 13:59:00,
2013-04-08 10:15:00,49.3,32.0,29.99,North,5,1.0,7.0,51,0.00,,,0.00,weatherlink.com 1.10,2013-04-08 14:15:00,
2013-04-08 10:45:00,49.6,32.0,29.99,WNW,284,0.0,4.0,52,0.00,,,0.00,weatherlink.com 1.10,2013-04-08 14:45:00,
2013-04-08 11:01:00,50.3,33.0,30.00,North,5,0.0,2.0,51,0.00,,,0.00,weatherlink.com 1.10,2013-04-08 15:01:00,
2013-04-08 11:15:00,51.0,33.0,30.00,NNW,329,3.0,4.0,51,0.00,,,0.00,weatherlink.com 1.10,2013-04-08 15:15:00,
2013-04-08 11:30:00,50.5,32.0,30.01,NNE,23,0.0,7.0,50,0.00,,,0.00,weatherlink.com 1.10,2013-04-08 15:30:00,
2013-04-08 11:46:00,51.6,33.0,30.01,North,360,0.0,4.0,50,0.00,,,0.00,weatherlink.com 1.10,2013-04-08 15:46:00,
2013-04-08 12:01:00,52.1,34.0,30.02,WNW,282,0.0,4.0,51,0.00,,,0.00,weatherlink.com 1.10,2013-04-08 16:01:00,
2013-04-08 12:16:00,53.2,33.0,30.02,West,269,5.0,5.0,46,0.00,,,0.00,weatherlink.com 1.10,2013-04-08 16:16:00,
2013-04-08 12:46:00,54.9,33.0,30.01,West,277,3.0,3.0,44,0.00,,,0.00,weatherlink.com 1.10,2013-04-08 16:46:00,
2013-04-08 13:02:00,55.6,34.0,30.02,WSW,258,0.0,7.0,44,0.00,,,0.00,weatherlink.com 1.10,2013-04-08 17:02:00,
2013-04-08 13:18:00,55.8,33.0,30.02,NNE,32,3.0,8.0,42,0.00,,,0.00,weatherlink.com 1.10,2013-04-08 17:18:00,
2013-04-08 13:32:00,55.6,33.0,30.02,NNW,336,1.0,6.0,43,0.00,,,0.00,weatherlink.com 1.10,2013-04-08 17:32:00,
2013-04-08 13:47:00,55.7,33.0,30.02,North,351,4.0,8.0,42,0.00,,,0.00,weatherlink.com 1.10,2013-04-08 17:47:00,
2013-04-08 14:02:00,55.2,32.0,30.01,NNE,30,8.0,11.0,41,0.00,,,0.00,weatherlink.com 1.10,2013-04-08 18:02:00,
2013-04-08 14:17:00,56.0,33.0,30.02,NE,55,2.0,9.0,42,0.00,,,0.00,weatherlink.com 1.10,2013-04-08 18:17:00,
2013-04-08 14:34:00,56.2,33.0,30.02,North,360,0.0,5.0,41,0.00,,,0.00,weatherlink.com 1.10,2013-04-08 18:34:00,
2013-04-08 15:04:00,56.6,32.0,30.01,WNW,290,0.0,6.0,39,0.00,,,0.00,weatherlink.com 1.10,2013-04-08 19:04:00,
2013-04-08 15:18:00,58.0,33.0,30.01,North,10,0.0,2.0,39,0.00,,,0.00,weatherlink.com 1.10,2013-04-08 19:18:00,
2013-04-08 15:34:00,58.1,31.0,30.00,WNW,302,0.0,4.0,36,0.00,,,0.00,weatherlink.com 1.10,2013-04-08 19:34:00,
2013-04-08 15:49:00,58.6,32.0,30.00,South,178,1.0,8.0,36,0.00,,,0.00,weatherlink.com 1.10,2013-04-08 19:49:00,
2013-04-08 16:04:00,58.1,32.0,30.00,NE,34,3.0,5.0,38,0.00,,,0.00,weatherlink.com 1.10,2013-04-08 20:04:00,
2013-04-08 16:19:00,57.9,31.0,30.00,North,9,0.0,3.0,36,0.00,,,0.00,weatherlink.com 1.10,2013-04-08 20:19:00,
2013-04-08 16:34:00,59.1,31.0,30.01,West,263,0.0,3.0,35,0.00,,,0.00,weatherlink.com 1.10,2013-04-08 20:34:00,
2013-04-08 16:49:00,59.6,32.0,30.02,NNE,26,0.0,2.0,36,0.00,,,0.00,weatherlink.com 1.10,2013-04-08 20:49:00,
2013-04-08 17:04:00,59.2,31.0,30.01,NW,305,0.0,4.0,35,0.00,,,0.00,weatherlink.com 1.10,2013-04-08 21:04:00,
2013-04-08 17:20:00,59.1,33.0,30.00,NW,304,0.0,1.0,37,0.00,,,0.00,weatherlink.com 1.10,2013-04-08 21:20:00,
2013-04-08 17:35:00,58.7,33.0,30.00,North,5,0.0,2.0,38,0.00,,,0.00,weatherlink.com 1.10,2013-04-08 21:35:00,
2013-04-08 17:50:00,58.4,31.0,30.01,West,263,0.0,2.0,36,0.00,,,0.00,weatherlink.com 1.10,2013-04-08 21:50:00,
2013-04-08 18:05:00,56.8,31.0,30.02,ENE,71,0.0,2.0,37,0.00,,,0.00,weatherlink.com 1.10,2013-04-08 22:05:00,
2013-04-08 18:20:00,55.1,30.0,30.02,ENE,71,0.0,0.0,39,0.00,,,0.00,weatherlink.com 1.10,2013-04-08 22:20:00,
2013-04-08 18:35:00,54.1,30.0,30.02,ENE,59,0.0,0.0,40,0.00,,,0.00,weatherlink.com 1.10,2013-04-08 22:35:00,
2013-04-08 18:50:00,53.0,29.0,30.02,NE,36,0.0,0.0,40,0.00,,,0.00,weatherlink.com 1.10,2013-04-08 22:50:00,
2013-04-08 19:05:00,52.0,29.0,30.03,NE,40,0.0,3.0,41,0.00,,,0.00,weatherlink.com 1.10,2013-04-08 23:05:00,
2013-04-08 19:21:00,50.9,29.0,30.04,NE,40,0.0,0.0,44,0.00,,,0.00,weatherlink.com 1.10,2013-04-08 23:21:00,
2013-04-08 19:36:00,49.5,30.0,30.04,NE,40,0.0,0.0,47,0.00,,,0.00,weatherlink.com 1.10,2013-04-08 23:36:00,
2013-04-08 19:52:00,47.6,31.0,30.05,NE,40,0.0,0.0,53,0.00,,,0.00,weatherlink.com 1.10,2013-04-08 23:52:00,
2013-04-08 20:07:00,46.3,31.0,30.06,NE,40,0.0,0.0,55,0.00,,,0.00,weatherlink.com 1.10,2013-04-09 00:07:00,
2013-04-08 20:22:00,44.8,31.0,30.05,NE,40,0.0,0.0,58,0.00,,,0.00,weatherlink.com 1.10,2013-04-09 00:22:00,
2013-04-08 20:37:00,43.3,31.0,30.07,NE,40,0.0,0.0,62,0.00,,,0.00,weatherlink.com 1.10,2013-04-09 00:37:00,
2013-04-08 20:51:00,42.6,31.0,30.08,NE,40,0.0,0.0,64,0.00,,,0.00,weatherlink.com 1.10,2013-04-09 00:51:00,
2013-04-08 21:07:00,41.7,31.0,30.09,NE,40,0.0,0.0,65,0.00,,,0.00,weatherlink.com 1.10,2013-04-09 01:07:00,
2013-04-08 21:22:00,41.3,31.0,30.09,NE,40,0.0,0.0,67,0.00,,,0.00,weatherlink.com 1.10,2013-04-09 01:22:00,
2013-04-08 21:37:00,41.2,31.0,30.10,NE,40,0.0,0.0,68,0.00,,,0.00,weatherlink.com 1.10,2013-04-09 01:37:00,
2013-04-08 21:52:00,41.2,31.0,30.10,NE,40,0.0,0.0,68,0.00,,,0.00,weatherlink.com 1.10,2013-04-09 01:52:00,
2013-04-08 22:08:00,41.0,31.0,30.10,NE,40,0.0,0.0,68,0.00,,,0.00,weatherlink.com 1.10,2013-04-09 02:08:00,
2013-04-08 22:22:00,40.6,32.0,30.10,NE,40,0.0,0.0,70,0.00,,,0.00,weatherlink.com 1.10,2013-04-09 02:22:00,
2013-04-08 22:37:00,40.1,31.0,30.09,NE,40,0.0,0.0,71,0.00,,,0.00,weatherlink.com 1.10,2013-04-09 02:37:00,
2013-04-08 22:53:00,39.5,31.0,30.09,NE,40,0.0,0.0,72,0.00,,,0.00,weatherlink.com 1.10,2013-04-09 02:53:00,
2013-04-08 23:08:00,39.3,31.0,30.09,NE,40,0.0,0.0,72,0.00,,,0.00,weatherlink.com 1.10,2013-04-09 03:08:00,
2013-04-08 23:23:00,39.6,31.0,30.09,NE,40,0.0,0.0,71,0.00,,,0.00,weatherlink.com 1.10,2013-04-09 03:23:00,
2013-04-08 23:38:00,39.6,31.0,30.09,NE,40,0.0,0.0,72,0.00,,,0.00,weatherlink.com 1.10,2013-04-09 03:38:00,
2013-04-08 23:53:00,39.2,31.0,30.08,NE,40,0.0,0.0,73,0.00,,,0.00,weatherlink.com 1.10,2013-04-09 03:53:00,